When you browse on this site, cookies collect data to enhance your experience and personalize the content and advertising you see.
Visit our Privacy Policy to learn more. By continuing to use the site, you agree to this use of cookies and data.
  • In Schweiz
  • Länderverzeichnis
  • Für 7 Tage
  • Wassertemperatur
  • Satellitenkarten
  • Wetterkarte
  • Widgets
  • user-avatar
    Anmelden

    Stündliche Wetter Olishevichi

    Heute, 16 Januar, Mittwoch

    Zeit Temperatur Niederschläge Wind Luftdruck Luftfeuchtigkeit
    00:00 -5°C° 0.1 mm 3 m/S 733 mmHg 87%
    01:00 -5°C° 0.1 mm 3 m/S 732 mmHg 91%
    02:00 -4°C° 0 mm 2 m/S 731 mmHg 95%
    03:00 -4°C° 0.5 mm 2 m/S 732 mmHg 96%
    04:00 -4°C° 0.5 mm 2 m/S 732 mmHg 96%
    05:00 -2°C° 0.5 mm 1 m/S 732 mmHg 96%
    06:00 -5°C° 0 mm 2 m/S 733 mmHg 96%
    07:00 -6°C° 0 mm 2 m/S 734 mmHg 95%
    08:00 -7°C° 0 mm 3 m/S 736 mmHg 94%
    09:00 -7°C° 0 mm 3 m/S 736 mmHg 93%
    10:00 -6°C° 0 mm 3 m/S 737 mmHg 92%
    11:00 -5°C° 0 mm 3 m/S 738 mmHg 90%
    12:00 -5°C° 0 mm 3 m/S 739 mmHg 90%
    13:00 -4°C° 0 mm 3 m/S 739 mmHg 89%
    14:00 -2°C° 0 mm 3 m/S 739 mmHg 88%
    15:00 -3°C° 0 mm 2 m/S 739 mmHg 89%
    16:00 -4°C° 0 mm 2 m/S 740 mmHg 91%
    17:00 -5°C° 0 mm 2 m/S 740 mmHg 93%
    18:00 -5°C° 0 mm 3 m/S 740 mmHg 93%
    19:00 -4°C° 0 mm 3 m/S 740 mmHg 93%
    20:00 -2°C° 0 mm 3 m/S 739 mmHg 93%
    21:00 -3°C° 0.1 mm 4 m/S 739 mmHg 94%
    22:00 -2°C° 0.1 mm 4 m/S 739 mmHg 95%
    23:00 -1°C° 0.1 mm 4 m/S 739 mmHg 96%

    Morgen, 17 Januar, Donnerstag

    Zeit Temperatur Niederschläge Wind Luftdruck Luftfeuchtigkeit
    00:00 -1°C° 0 mm 4 m/S 739 mmHg 96%
    01:00 -1°C° 0 mm 5 m/S 739 mmHg 96%
    02:00 -1°C° 0 mm 5 m/S 739 mmHg 97%
    03:00 -1°C° 0 mm 5 m/S 738 mmHg 96%
    04:00 -1°C° 0 mm 5 m/S 738 mmHg 95%
    05:00 -1°C° 0 mm 5 m/S 738 mmHg 95%
    06:00 -1°C° 0 mm 5 m/S 737 mmHg 93%
    07:00 -2°C° 0 mm 6 m/S 737 mmHg 91%
    08:00 -3°C° 0 mm 6 m/S 736 mmHg 90%
    09:00 -2°C° 0 mm 6 m/S 736 mmHg 88%
    10:00 -2°C° 0 mm 7 m/S 735 mmHg 86%
    11:00 -2°C° 0 mm 7 m/S 735 mmHg 83%
    12:00 -1°C° 0 mm 7 m/S 735 mmHg 83%
    13:00 -1°C° 0 mm 7 m/S 735 mmHg 83%
    14:00 -1°C° 0 mm 7 m/S 735 mmHg 82%
    15:00 -1°C° 0 mm 7 m/S 735 mmHg 84%
    16:00 -1°C° 0 mm 7 m/S 735 mmHg 87%
    17:00 -1°C° 0 mm 6 m/S 735 mmHg 89%
    18:00 -1°C° 0 mm 6 m/S 736 mmHg 90%
    19:00 -1°C° 0 mm 6 m/S 736 mmHg 90%
    20:00 -1°C° 0 mm 6 m/S 736 mmHg 91%
    21:00 0°C° 0 mm 5 m/S 736 mmHg 91%
    22:00 -1°C° 0 mm 5 m/S 736 mmHg 91%
    23:00 -1°C° 0 mm 5 m/S 736 mmHg 91%

    übermorgen, 18 Januar, Freitag

    Zeit Temperatur Niederschläge Wind Luftdruck Luftfeuchtigkeit
    00:00 -2°C° 0 mm 6 m/S 736 mmHg 91%
    01:00 -2°C° 0 mm 6 m/S 736 mmHg 91%
    02:00 -1°C° 0 mm 6 m/S 736 mmHg 91%
    03:00 -2°C° 0 mm 6 m/S 736 mmHg 89%
    04:00 -2°C° 0 mm 6 m/S 736 mmHg 87%
    05:00 -2°C° 0 mm 6 m/S 736 mmHg 85%
    06:00 -3°C° 0 mm 6 m/S 736 mmHg 84%
    07:00 -3°C° 0 mm 6 m/S 736 mmHg 83%
    08:00 -4°C° 0 mm 6 m/S 736 mmHg 82%
    09:00 -4°C° 0 mm 7 m/S 737 mmHg 80%
    10:00 -4°C° 0 mm 8 m/S 737 mmHg 78%
    11:00 -4°C° 0 mm 9 m/S 738 mmHg 76%
    12:00 -4°C° 0.1 mm 9 m/S 738 mmHg 75%
    13:00 -4°C° 0.1 mm 9 m/S 739 mmHg 73%
    14:00 -4°C° 0.1 mm 8 m/S 740 mmHg 72%
    15:00 -4°C° 0 mm 7 m/S 741 mmHg 74%
    16:00 -4°C° 0 mm 6 m/S 743 mmHg 77%
    17:00 -5°C° 0 mm 5 m/S 744 mmHg 79%
    18:00 -5°C° 0 mm 5 m/S 745 mmHg 80%
    19:00 -5°C° 0 mm 5 m/S 745 mmHg 81%
    20:00 -6°C° 0 mm 5 m/S 746 mmHg 81%
    21:00 -6°C° 0 mm 5 m/S 747 mmHg 82%
    22:00 -6°C° 0 mm 5 m/S 747 mmHg 82%
    23:00 -5°C° 0 mm 4 m/S 748 mmHg 83%

    19 Januar, Samstag

    Zeit Temperatur Niederschläge Wind Luftdruck Luftfeuchtigkeit
    00:00 -5°C° 0 mm 4 m/S 748 mmHg 84%
    01:00 -5°C° 0 mm 4 m/S 748 mmHg 86%
    02:00 -7°C° 0 mm 4 m/S 748 mmHg 87%
    03:00 -6°C° 0 mm 5 m/S 748 mmHg 87%
    04:00 -6°C° 0 mm 5 m/S 748 mmHg 87%
    05:00 -6°C° 0 mm 5 m/S 748 mmHg 87%
    06:00 -6°C° 0.1 mm 5 m/S 748 mmHg 88%
    07:00 -6°C° 0.1 mm 5 m/S 748 mmHg 89%
    08:00 -6°C° 0.1 mm 5 m/S 748 mmHg 89%
    09:00 -4°C° 0.1 mm 4 m/S 749 mmHg 89%
    10:00 -4°C° 0.1 mm 4 m/S 749 mmHg 89%
    11:00 -4°C° 0.1 mm 4 m/S 749 mmHg 89%
    12:00 -4°C° 0 mm 4 m/S 749 mmHg 88%
    13:00 -2°C° 0 mm 3 m/S 749 mmHg 87%
    14:00 -2°C° 0 mm 3 m/S 749 mmHg 87%
    15:00 -2°C° 0 mm 3 m/S 749 mmHg 88%
    16:00 -2°C° 0 mm 3 m/S 749 mmHg 88%
    17:00 -3°C° 0 mm 2 m/S 749 mmHg 89%
    18:00 -3°C° 0 mm 2 m/S 749 mmHg 90%
    19:00 -3°C° 0 mm 2 m/S 749 mmHg 91%
    20:00 -3°C° 0 mm 2 m/S 749 mmHg 92%
    21:00 -4°C° 0 mm 2 m/S 749 mmHg 91%
    22:00 -4°C° 0 mm 2 m/S 749 mmHg 91%
    23:00 -4°C° 0 mm 2 m/S 748 mmHg 90%

    20 Januar, Sonntag

    Zeit Temperatur Niederschläge Wind Luftdruck Luftfeuchtigkeit
    00:00 -4°C° 0 mm 2 m/S 748 mmHg 91%
    01:00 -4°C° 0 mm 2 m/S 748 mmHg 91%
    02:00 -4°C° 0 mm 2 m/S 748 mmHg 91%
    03:00 -4°C° 0 mm 2 m/S 748 mmHg 92%
    04:00 -5°C° 0 mm 2 m/S 747 mmHg 93%
    05:00 -5°C° 0 mm 2 m/S 747 mmHg 94%
    06:00 -5°C° 0 mm 2 m/S 747 mmHg 94%
    07:00 -3°C° 0 mm 1 m/S 747 mmHg 93%
    08:00 -2°C° 0 mm 1 m/S 747 mmHg 93%
    09:00 -2°C° 0 mm 1 m/S 747 mmHg 92%
    10:00 -2°C° 0 mm 1 m/S 747 mmHg 91%
    11:00 -1°C° 0 mm 1 m/S 747 mmHg 89%
    12:00 -3°C° 0 mm 2 m/S 747 mmHg 88%
    13:00 -3°C° 0 mm 2 m/S 747 mmHg 86%
    14:00 -3°C° 0 mm 2 m/S 746 mmHg 84%
    15:00 -1°C° 0 mm 1 m/S 746 mmHg 87%
    16:00 -2°C° 0 mm 1 m/S 746 mmHg 89%
    17:00 -3°C° 0 mm 1 m/S 746 mmHg 91%
    18:00 -3°C° 0 mm 1 m/S 746 mmHg 91%
    19:00 -3°C° 0 mm 1 m/S 746 mmHg 91%
    20:00 -5°C° 0 mm 2 m/S 746 mmHg 92%
    21:00 -5°C° 0 mm 2 m/S 745 mmHg 91%
    22:00 -6°C° 0 mm 2 m/S 745 mmHg 91%
    23:00 -6°C° 0 mm 2 m/S 745 mmHg 91%

    21 Januar, Montag

    Zeit Temperatur Niederschläge Wind Luftdruck Luftfeuchtigkeit
    00:00 -7°C° 0 mm 3 m/S 745 mmHg 91%
    01:00 -7°C° 0 mm 3 m/S 745 mmHg 92%
    02:00 -7°C° 0 mm 3 m/S 745 mmHg 92%
    03:00 -6°C° 0.1 mm 3 m/S 745 mmHg 92%
    04:00 -7°C° 0.1 mm 4 m/S 745 mmHg 91%
    05:00 -5°C° 0.1 mm 4 m/S 746 mmHg 91%
    06:00 -7°C° 0 mm 4 m/S 746 mmHg 90%
    07:00 -8°C° 0 mm 4 m/S 746 mmHg 89%
    08:00 -8°C° 0 mm 3 m/S 747 mmHg 88%
    09:00 -9°C° 0 mm 4 m/S 747 mmHg 87%
    10:00 -8°C° 0 mm 4 m/S 748 mmHg 86%
    11:00 -8°C° 0 mm 4 m/S 748 mmHg 85%
    12:00 -7°C° 0 mm 5 m/S 749 mmHg 82%
    13:00 -7°C° 0 mm 5 m/S 749 mmHg 79%
    14:00 -7°C° 0 mm 5 m/S 749 mmHg 75%
    15:00 -7°C° 0 mm 5 m/S 750 mmHg 76%
    16:00 -8°C° 0 mm 5 m/S 750 mmHg 78%
    17:00 -8°C° 0 mm 4 m/S 750 mmHg 79%
    18:00 -9°C° 0 mm 4 m/S 751 mmHg 80%
    19:00 -9°C° 0 mm 4 m/S 751 mmHg 81%
    20:00 -9°C° 0 mm 4 m/S 751 mmHg 82%
    21:00 -10°C° 0 mm 4 m/S 752 mmHg 84%
    22:00 -10°C° 0 mm 4 m/S 752 mmHg 85%
    23:00 -9°C° 0 mm 3 m/S 753 mmHg 87%
    Mehr zeigen